Regional Weather Roundup
Issued by NWS Cleveland, OH

Home | Current Version | Previous Version | Text Only | Print | Product List | Glossary On
Versions: 1 2 3 4 5 6 7 8 9 10 11 12 13 14 15 16 17 18 19 20 21 22 23 24 25 26 27 28 29 30 31 32 33 34 35 36 37 38 39 40 41 42 43 44 45 46 47 48 49 50
000
ASUS41 KCLE 240112
RWRCLE
OHIO REGIONAL WEATHER ROUNDUP
NATIONAL WEATHER SERVICE WILMINGTON, OH
900 PM EDT SAT JUL 23 2016

NOTE: "FAIR" INDICATES FEW OR NO CLOUDS BELOW 12,000 FEET WITH NO
SIGNIFICANT WEATHER AND/OR OBSTRUCTIONS TO VISIBILITY.

OHZ001>008-015>018-024>027-034-035-043-044-240200-
   NORTHWEST OHIO

CITY           SKY/WX    TMP DP  RH WIND       PRES   REMARKS
DEFIANCE       FAIR      82  72  71 CALM      29.96R
FINDLAY        FAIR      85  69  58 W3        29.96R
TOLEDO EXPRESS FAIR      80  73  79 S5        29.95R
TOLEDO EXEC    FAIR      86  68  54 CALM      29.96R
LIMA           MOCLDY    81  76  84 CALM      29.97R
$$

OHZ009>014-019>023-028>033-038-089-240200-
   NORTHEAST OHIO

CITY           SKY/WX    TMP DP  RH WIND       PRES   REMARKS
CLE-HOPKINS    MOCLDY    85  63  47 N6        29.97F
CLE-LAKEFRONT  FAIR      80  72  76 NE5       29.94F
CUY CO. ARPT   PTCLDY    81  64  57 CALM      29.97S
LORAIN-ELYRIA  FAIR      80  63  55 NE3       29.97R
ASHTABULA      FAIR      72  67  84 CALM      29.99S
AKRON-CANTON   MOCLDY    82  61  48 N6        29.97S
WOOSTER        FAIR      80  67  64 N6        29.98S
MANSFIELD      FAIR      83  71  67 N3        30.00R
YOUNGSTOWN     MOCLDY    79  60  52 NE5       29.99S
$$

OHZ042-051>053-060>062-070>072-077>081-240200-
  SOUTHWEST OHIO

CITY           SKY/WX    TMP DP  RH WIND       PRES   REMARKS
CINC-COVINGTON FAIR      86  73  65 NW5       29.97R HX  93
CINC-LUNKEN    MOCLDY    82  76  81 CALM      29.95R
HAMILTON       FAIR      83  71  67 NW6       29.97R
DAYTON         FAIR      83  72  69 W5        29.99R
WRIGHT-PAT AFB FAIR      85  74  69 NW5       29.98R HX  92
DAYTON GENERAL FAIR      86  70  58 NW5       29.97S HX  90
WILMINGTON     FAIR      82  76  81 CALM      29.97S
$$

OHZ036-037-039>041-045>050-054>059-063>069-073>076-082>088-240200-
  CENTRAL AND SOUTHEAST OHIO

CITY           SKY/WX    TMP DP  RH WIND       PRES   REMARKS
COLUMBUS       MOCLDY    86  70  58 CALM      29.96R HX  90
OSU AIRPORT    FAIR      85  70  60 CALM      29.97S
BOLTON FIELD   FAIR      82  74  75 CALM      29.98S
RICKENBACK AFB FAIR      83  74  72 CALM      29.96S HX  90
NEWARK         FAIR      82  75  79 CALM      29.96S
MARION         FAIR      84  71  65 W3        29.98R
LANCASTER      FAIR      80  75  84 CALM      29.97S
ZANESVILLE     FAIR      86  72  62 CALM      29.97R HX  92
NEW PHILLY     FAIR      83  74  74 CALM      29.96S
$$



USA.gov is the U.S. government's official web portal to all federal, state and local government web resources and services.